Location: Taukkyan
(23.1052°N, 94.0030°E)
Time: 11:31:11
(UTC+00:00)

ADEOS Rocket - Pass Details

Date: 06 July 2020
Orbit: 859 x 1306 km, 98.7° (Epoch: 14 August)

Event Time Altitude Azimuth Distance (km) Brightness Sun altitude
Rises 22:17:11 0° 148° (SSE) 3,499 5.9 -10.4°
Reaches altitude 10° 22:19:37 10° 141° (SE) 2,601 5.4 -9.9°
Maximum altitude 22:25:02 42° 72° (ENE) 1,355 4.5 -8.8°
Drops below altitude 10° 22:30:57 10° 4° (N) 2,858 5.9 -7.6°
Sets 22:33:44 0° 358° (N) 3,883 6.5 -7.1°
